Year,Month,Day,Hour,Minute,Value (Times are PST for temperature in C)
2017,05,25,00,00,7.70
2017,05,25,00,01,7.70
2017,05,25,00,02,7.70
2017,05,25,00,03,7.70
2017,05,25,00,04,7.60
2017,05,25,00,05,7.60
2017,05,25,00,06,7.60
2017,05,25,00,07,7.60
2017,05,25,00,08,7.60
2017,05,25,00,09,7.60
2017,05,25,00,10,7.50
2017,05,25,00,11,7.50
2017,05,25,00,12,7.50
2017,05,25,00,13,7.40
2017,05,25,00,14,7.40
2017,05,25,00,15,7.40
2017,05,25,00,16,7.40
2017,05,25,00,17,7.40
2017,05,25,00,18,7.40
2017,05,25,00,19,7.30
2017,05,25,00,20,7.30
2017,05,25,00,21,7.30
2017,05,25,00,22,7.30
2017,05,25,00,23,7.30
2017,05,25,00,24,7.30
2017,05,25,00,25,7.30
2017,05,25,00,26,7.30
2017,05,25,00,27,7.30
2017,05,25,00,28,7.30
2017,05,25,00,29,7.30
2017,05,25,00,30,7.20
2017,05,25,00,31,7.20
2017,05,25,00,32,7.20
2017,05,25,00,33,7.20
2017,05,25,00,34,7.20
2017,05,25,00,35,7.10
2017,05,25,00,36,7.10
2017,05,25,00,37,7.10
2017,05,25,00,38,7.10
2017,05,25,00,39,7.10
2017,05,25,00,40,7.10
2017,05,25,00,41,7.00
2017,05,25,00,42,7.00
2017,05,25,00,43,7.00
2017,05,25,00,44,7.00
2017,05,25,00,45,7.00
2017,05,25,00,46,6.90
2017,05,25,00,47,6.90
2017,05,25,00,48,6.90
2017,05,25,00,49,6.90
2017,05,25,00,50,6.90
2017,05,25,00,51,6.90
2017,05,25,00,52,6.90
2017,05,25,00,53,6.90
2017,05,25,00,54,6.90
2017,05,25,00,55,6.80
2017,05,25,00,56,6.80
2017,05,25,00,57,6.80
2017,05,25,00,58,6.80
2017,05,25,00,59,6.80
2017,05,25,01,00,6.80
2017,05,25,01,01,6.80
2017,05,25,01,02,6.80
2017,05,25,01,03,6.80
2017,05,25,01,04,6.70
2017,05,25,01,05,6.70
2017,05,25,01,06,6.70
2017,05,25,01,07,6.70
2017,05,25,01,08,6.70
2017,05,25,01,09,6.70
2017,05,25,01,10,6.70
2017,05,25,01,11,6.60
2017,05,25,01,12,6.60
2017,05,25,01,13,6.60
2017,05,25,01,14,6.60
2017,05,25,01,15,6.60
2017,05,25,01,16,6.60
2017,05,25,01,17,6.60
2017,05,25,01,18,6.60
2017,05,25,01,19,6.60
2017,05,25,01,20,6.60
2017,05,25,01,21,6.60
2017,05,25,01,22,6.60
2017,05,25,01,23,6.60
2017,05,25,01,24,6.60
2017,05,25,01,25,6.50
2017,05,25,01,26,6.50
2017,05,25,01,27,6.50
2017,05,25,01,28,6.50
2017,05,25,01,29,6.50
2017,05,25,01,30,6.50
2017,05,25,01,31,6.50
2017,05,25,01,32,6.50
2017,05,25,01,33,6.50
2017,05,25,01,34,6.50
2017,05,25,01,35,6.50
2017,05,25,01,36,6.50
2017,05,25,01,37,6.50
2017,05,25,01,38,6.50
2017,05,25,01,39,6.50
2017,05,25,01,40,6.50
2017,05,25,01,41,6.40
2017,05,25,01,42,6.40
2017,05,25,01,43,6.40
2017,05,25,01,44,6.40
2017,05,25,01,45,6.40
2017,05,25,01,46,6.40
2017,05,25,01,47,6.40
2017,05,25,01,48,6.40
2017,05,25,01,49,6.40
2017,05,25,01,50,6.40
2017,05,25,01,51,6.40
2017,05,25,01,52,6.30
2017,05,25,01,53,6.30
2017,05,25,01,54,6.30
2017,05,25,01,55,6.30
2017,05,25,01,56,6.30
2017,05,25,01,57,6.30
2017,05,25,01,58,6.30
2017,05,25,01,59,6.20
2017,05,25,02,00,6.20
2017,05,25,02,01,6.20
2017,05,25,02,02,6.20
2017,05,25,02,03,6.20
2017,05,25,02,04,6.20
2017,05,25,02,05,6.10
2017,05,25,02,06,6.10
2017,05,25,02,07,6.10
2017,05,25,02,08,6.10
2017,05,25,02,09,6.10
2017,05,25,02,10,6.10
2017,05,25,02,11,6.10
2017,05,25,02,12,6.10
2017,05,25,02,13,6.10
2017,05,25,02,14,6.00
2017,05,25,02,15,6.00
2017,05,25,02,16,6.00
2017,05,25,02,17,6.00
2017,05,25,02,18,6.00
2017,05,25,02,19,6.00
2017,05,25,02,20,5.90
2017,05,25,02,21,5.90
2017,05,25,02,22,5.90
2017,05,25,02,23,5.90
2017,05,25,02,24,5.90
2017,05,25,02,25,5.90
2017,05,25,02,26,5.90
2017,05,25,02,27,5.90
2017,05,25,02,28,5.90
2017,05,25,02,29,5.90
2017,05,25,02,30,5.90
2017,05,25,02,31,5.80
2017,05,25,02,32,5.80
2017,05,25,02,33,5.80
2017,05,25,02,34,5.80
2017,05,25,02,35,5.80
2017,05,25,02,36,5.80
2017,05,25,02,37,5.80
2017,05,25,02,38,5.80
2017,05,25,02,39,5.80
2017,05,25,02,40,5.80
2017,05,25,02,41,5.80
2017,05,25,02,42,5.80
2017,05,25,02,43,5.80
2017,05,25,02,44,5.80
2017,05,25,02,45,5.80
2017,05,25,02,46,5.80
2017,05,25,02,47,5.90
2017,05,25,02,48,5.90
2017,05,25,02,49,5.90
2017,05,25,02,50,5.90
2017,05,25,02,51,5.90
2017,05,25,02,52,5.90
2017,05,25,02,53,5.90
2017,05,25,02,54,5.90
2017,05,25,02,55,5.90
2017,05,25,02,56,5.90
2017,05,25,02,57,5.90
2017,05,25,02,58,5.90
2017,05,25,02,59,6.00
2017,05,25,03,00,6.00
2017,05,25,03,01,6.00
2017,05,25,03,02,6.00
2017,05,25,03,03,6.00
2017,05,25,03,04,6.10
2017,05,25,03,05,6.10
2017,05,25,03,06,6.10
2017,05,25,03,07,6.10
2017,05,25,03,08,6.20
2017,05,25,03,09,6.20
2017,05,25,03,10,6.20
2017,05,25,03,11,6.20
2017,05,25,03,12,6.20
2017,05,25,03,13,6.20
2017,05,25,03,14,6.20
2017,05,25,03,15,6.20
2017,05,25,03,16,6.20
2017,05,25,03,17,6.20
2017,05,25,03,18,6.20
2017,05,25,03,19,6.20
2017,05,25,03,20,6.20
2017,05,25,03,21,6.20
2017,05,25,03,22,6.20
2017,05,25,03,23,6.20
2017,05,25,03,24,6.20
2017,05,25,03,25,6.20
2017,05,25,03,26,6.20
2017,05,25,03,27,6.20
2017,05,25,03,28,6.20
2017,05,25,03,29,6.10
2017,05,25,03,30,6.10
2017,05,25,03,31,6.10
2017,05,25,03,32,6.10
2017,05,25,03,33,6.10
2017,05,25,03,34,6.10
2017,05,25,03,35,6.20
2017,05,25,03,36,6.20
2017,05,25,03,37,6.20
2017,05,25,03,38,6.20
2017,05,25,03,39,6.20
2017,05,25,03,40,6.20
2017,05,25,03,41,6.20
2017,05,25,03,42,6.20
2017,05,25,03,43,6.20
2017,05,25,03,44,6.20
2017,05,25,03,45,6.20
2017,05,25,03,46,6.20
2017,05,25,03,47,6.20
2017,05,25,03,48,6.20
2017,05,25,03,49,6.20
2017,05,25,03,50,6.10
2017,05,25,03,51,6.10
2017,05,25,03,52,6.10
2017,05,25,03,53,6.10
2017,05,25,03,54,6.10
2017,05,25,03,55,6.10
2017,05,25,03,56,6.20
2017,05,25,03,57,6.20
2017,05,25,03,58,6.20
2017,05,25,03,59,6.20
2017,05,25,04,00,6.20
2017,05,25,04,01,6.10
2017,05,25,04,02,6.10
2017,05,25,04,03,6.10
2017,05,25,04,04,6.10
2017,05,25,04,05,6.10
2017,05,25,04,06,6.10
2017,05,25,04,07,6.10
2017,05,25,04,08,6.10
2017,05,25,04,09,6.10
2017,05,25,04,10,6.10
2017,05,25,04,11,6.10
2017,05,25,04,12,6.10
2017,05,25,04,13,6.10
2017,05,25,04,14,6.10
2017,05,25,04,15,6.10
2017,05,25,04,16,6.20
2017,05,25,04,17,6.20
2017,05,25,04,18,6.20
2017,05,25,04,19,6.20
2017,05,25,04,20,6.20
2017,05,25,04,21,6.20
2017,05,25,04,22,6.20
2017,05,25,04,23,6.20
2017,05,25,04,24,6.20
2017,05,25,04,25,6.20
2017,05,25,04,26,6.20
2017,05,25,04,27,6.20
2017,05,25,04,28,6.20
2017,05,25,04,29,6.20
2017,05,25,04,30,6.10
2017,05,25,04,31,6.10
2017,05,25,04,32,6.10
2017,05,25,04,33,6.10
2017,05,25,04,34,6.10
2017,05,25,04,35,6.10
2017,05,25,04,36,6.10
2017,05,25,04,37,6.10
2017,05,25,04,38,6.10
2017,05,25,04,39,6.10
2017,05,25,04,40,6.10
2017,05,25,04,41,6.10
2017,05,25,04,42,6.10
2017,05,25,04,43,6.00
2017,05,25,04,44,6.10
2017,05,25,04,45,6.00
2017,05,25,04,46,6.00
2017,05,25,04,47,6.00
2017,05,25,04,48,6.00
2017,05,25,04,49,6.00
2017,05,25,04,50,6.00
2017,05,25,04,51,6.00
2017,05,25,04,52,5.90
2017,05,25,04,53,5.90
2017,05,25,04,54,5.90
2017,05,25,04,55,5.90
2017,05,25,04,56,5.90
2017,05,25,04,57,5.90
2017,05,25,04,58,5.90
2017,05,25,04,59,5.90
2017,05,25,05,00,5.90
2017,05,25,05,01,5.90
2017,05,25,05,02,5.90
2017,05,25,05,03,5.90
2017,05,25,05,04,5.90
2017,05,25,05,05,5.90
2017,05,25,05,06,5.90
2017,05,25,05,07,5.80
2017,05,25,05,08,5.80
2017,05,25,05,09,5.80
2017,05,25,05,10,5.80
2017,05,25,05,11,5.80
2017,05,25,05,12,5.70
2017,05,25,05,13,5.70
2017,05,25,05,14,5.70
2017,05,25,05,15,5.70
2017,05,25,05,16,5.70
2017,05,25,05,17,5.70
2017,05,25,05,18,5.70
2017,05,25,05,19,5.70
2017,05,25,05,20,5.60
2017,05,25,05,21,5.60
2017,05,25,05,22,5.60
2017,05,25,05,23,5.60
2017,05,25,05,24,5.60
2017,05,25,05,25,5.60
2017,05,25,05,26,5.60
2017,05,25,05,27,5.60
2017,05,25,05,28,5.60
2017,05,25,05,29,5.60
2017,05,25,05,30,5.60
2017,05,25,05,31,5.60
2017,05,25,05,32,5.60
2017,05,25,05,33,5.60
2017,05,25,05,34,5.60
2017,05,25,05,35,5.60
2017,05,25,05,36,5.60
2017,05,25,05,37,5.60
2017,05,25,05,38,5.60
2017,05,25,05,39,5.60
2017,05,25,05,40,5.60
2017,05,25,05,41,5.60
2017,05,25,05,42,5.60
2017,05,25,05,43,5.60
2017,05,25,05,44,5.60
2017,05,25,05,45,5.60
2017,05,25,05,46,5.60
2017,05,25,05,47,5.50
2017,05,25,05,48,5.50
2017,05,25,05,49,5.50
2017,05,25,05,50,5.50
2017,05,25,05,51,5.50
2017,05,25,05,52,5.50
2017,05,25,05,53,5.40
2017,05,25,05,54,5.40
2017,05,25,05,55,5.40
2017,05,25,05,56,5.40
2017,05,25,05,57,5.40
2017,05,25,05,58,5.40
2017,05,25,05,59,5.40
2017,05,25,06,00,5.40
2017,05,25,06,01,5.40
2017,05,25,06,02,5.40
2017,05,25,06,03,5.40
2017,05,25,06,04,5.50
2017,05,25,06,05,5.50
2017,05,25,06,06,5.50
2017,05,25,06,07,5.50
2017,05,25,06,08,5.50
2017,05,25,06,09,5.50
2017,05,25,06,10,5.50
2017,05,25,06,11,5.60
2017,05,25,06,12,5.60
2017,05,25,06,13,5.60
2017,05,25,06,14,5.60
2017,05,25,06,15,5.60
2017,05,25,06,16,5.60
2017,05,25,06,17,5.60
2017,05,25,06,18,5.60
2017,05,25,06,19,5.60
2017,05,25,06,20,5.60
2017,05,25,06,21,5.60
2017,05,25,06,22,5.60
2017,05,25,06,23,5.70
2017,05,25,06,24,5.70
2017,05,25,06,25,5.70
2017,05,25,06,26,5.70
2017,05,25,06,27,5.70
2017,05,25,06,28,5.80
2017,05,25,06,29,5.80
2017,05,25,06,30,5.80
2017,05,25,06,31,5.90
2017,05,25,06,32,5.90
2017,05,25,06,33,6.00
2017,05,25,06,34,6.10
2017,05,25,06,35,6.20
2017,05,25,06,36,6.30
2017,05,25,06,37,6.30
2017,05,25,06,38,6.40
2017,05,25,06,39,6.50
2017,05,25,06,40,6.60
2017,05,25,06,41,6.70
2017,05,25,06,42,6.80
2017,05,25,06,43,6.90
2017,05,25,06,44,6.90
2017,05,25,06,45,7.00
2017,05,25,06,46,7.10
2017,05,25,06,47,7.20
2017,05,25,06,48,7.30
2017,05,25,06,49,7.30
2017,05,25,06,50,7.40
2017,05,25,06,51,7.50
2017,05,25,06,52,7.60
2017,05,25,06,53,7.60
2017,05,25,06,54,7.70
2017,05,25,06,55,7.70
2017,05,25,06,56,7.80
2017,05,25,06,57,7.80
2017,05,25,06,58,7.90
2017,05,25,06,59,7.90
2017,05,25,07,00,8.00
2017,05,25,07,01,8.00
2017,05,25,07,02,8.10
2017,05,25,07,03,8.10
2017,05,25,07,04,8.10
2017,05,25,07,05,8.20
2017,05,25,07,06,8.20
2017,05,25,07,07,8.30
2017,05,25,07,08,8.40
2017,05,25,07,09,8.40
2017,05,25,07,10,8.50
2017,05,25,07,11,8.60
2017,05,25,07,12,8.60
2017,05,25,07,13,8.70
2017,05,25,07,14,8.70
2017,05,25,07,15,8.70
2017,05,25,07,16,8.70
2017,05,25,07,17,8.80
2017,05,25,07,18,8.80
2017,05,25,07,19,8.90
2017,05,25,07,20,8.90
2017,05,25,07,21,9.00
2017,05,25,07,22,9.10
2017,05,25,07,23,9.10
2017,05,25,07,24,9.20
2017,05,25,07,25,9.30
2017,05,25,07,26,9.40
2017,05,25,07,27,9.50
2017,05,25,07,28,9.50
2017,05,25,07,29,9.60
2017,05,25,07,30,9.70
2017,05,25,07,31,9.80
2017,05,25,07,32,9.90
2017,05,25,07,33,9.90
2017,05,25,07,34,10.00
2017,05,25,07,35,10.00
2017,05,25,07,36,10.10
2017,05,25,07,37,10.20
2017,05,25,07,38,10.20
2017,05,25,07,39,10.30
2017,05,25,07,40,10.30
2017,05,25,07,41,10.30
2017,05,25,07,42,10.40
2017,05,25,07,43,10.40
2017,05,25,07,44,10.50
2017,05,25,07,45,10.60
2017,05,25,07,46,10.70
2017,05,25,07,47,10.80
2017,05,25,07,48,10.80
2017,05,25,07,49,10.90
2017,05,25,07,50,10.90
2017,05,25,07,51,11.00
2017,05,25,07,52,11.10
2017,05,25,07,53,11.10
2017,05,25,07,54,11.20
2017,05,25,07,55,11.30
2017,05,25,07,56,11.40
2017,05,25,07,57,11.50
2017,05,25,07,58,11.60
2017,05,25,07,59,11.70
2017,05,25,08,00,11.70
2017,05,25,08,01,11.80
2017,05,25,08,02,11.80
2017,05,25,08,03,11.90
2017,05,25,08,04,12.00
2017,05,25,08,05,12.10
2017,05,25,08,06,12.20
2017,05,25,08,07,12.30
2017,05,25,08,08,12.50
2017,05,25,08,09,12.60
2017,05,25,08,10,12.80
2017,05,25,08,11,12.90
2017,05,25,08,12,13.00
2017,05,25,08,13,13.10
2017,05,25,08,14,13.20
2017,05,25,08,15,13.40
2017,05,25,08,16,13.50
2017,05,25,08,17,13.60
2017,05,25,08,18,13.70
2017,05,25,08,19,13.80
2017,05,25,08,20,13.80
2017,05,25,08,21,13.90
2017,05,25,08,22,14.00
2017,05,25,08,23,14.00
2017,05,25,08,24,14.10
2017,05,25,08,25,14.20
2017,05,25,08,26,14.20
2017,05,25,08,27,14.20
2017,05,25,08,28,14.20
2017,05,25,08,29,14.20
2017,05,25,08,30,14.30
2017,05,25,08,31,14.30
2017,05,25,08,32,14.40
2017,05,25,08,33,14.50
2017,05,25,08,34,14.50
2017,05,25,08,35,14.60
2017,05,25,08,36,14.60
2017,05,25,08,37,14.60
2017,05,25,08,38,14.50
2017,05,25,08,39,14.50
2017,05,25,08,40,14.50
2017,05,25,08,41,14.50
2017,05,25,08,42,14.60
2017,05,25,08,43,14.60
2017,05,25,08,44,14.70
2017,05,25,08,45,14.80
2017,05,25,08,46,14.80
2017,05,25,08,47,14.80
2017,05,25,08,48,14.70
2017,05,25,08,49,14.70
2017,05,25,08,50,14.70
2017,05,25,08,51,14.70
2017,05,25,08,52,14.70
2017,05,25,08,53,14.80
2017,05,25,08,54,14.80
2017,05,25,08,55,14.80
2017,05,25,08,56,14.90
2017,05,25,08,57,14.90
2017,05,25,08,58,14.90
2017,05,25,08,59,14.90
2017,05,25,09,00,14.90
2017,05,25,09,01,14.90
2017,05,25,09,02,14.90
2017,05,25,09,03,14.90
2017,05,25,09,04,14.90
2017,05,25,09,05,15.00
2017,05,25,09,06,15.00
2017,05,25,09,07,15.00
2017,05,25,09,08,15.00
2017,05,25,09,09,15.10
2017,05,25,09,10,15.10
2017,05,25,09,11,15.00
2017,05,25,09,12,15.10
2017,05,25,09,13,15.10
2017,05,25,09,14,15.20
2017,05,25,09,15,15.20
2017,05,25,09,16,15.20
2017,05,25,09,17,15.20
2017,05,25,09,18,15.20
2017,05,25,09,19,15.20
2017,05,25,09,20,15.10
2017,05,25,09,21,15.00
2017,05,25,09,22,14.90
2017,05,25,09,23,14.90
2017,05,25,09,24,14.90
2017,05,25,09,25,14.90
2017,05,25,09,26,15.00
2017,05,25,09,27,15.10
2017,05,25,09,28,15.10
2017,05,25,09,29,15.20
2017,05,25,09,30,15.20
2017,05,25,09,31,15.10
2017,05,25,09,32,15.10
2017,05,25,09,33,15.10
2017,05,25,09,34,15.20
2017,05,25,09,35,15.30
2017,05,25,09,36,15.50
2017,05,25,09,37,15.60
2017,05,25,09,38,15.70
2017,05,25,09,39,15.90
2017,05,25,09,40,16.00
2017,05,25,09,41,16.00
2017,05,25,09,42,16.00
2017,05,25,09,43,16.00
2017,05,25,09,44,16.00
2017,05,25,09,45,15.90
2017,05,25,09,46,15.90
2017,05,25,09,47,15.80
2017,05,25,09,48,15.80
2017,05,25,09,49,15.80
2017,05,25,09,50,15.70
2017,05,25,09,51,15.70
2017,05,25,09,52,15.70
2017,05,25,09,53,15.70
2017,05,25,09,54,15.70
2017,05,25,09,55,15.70
2017,05,25,09,56,15.70
2017,05,25,09,57,15.70
2017,05,25,09,58,15.80
2017,05,25,09,59,15.90
2017,05,25,10,00,16.00
2017,05,25,10,01,16.00
2017,05,25,10,02,16.00
2017,05,25,10,03,15.90
2017,05,25,10,04,16.00
2017,05,25,10,05,16.00
2017,05,25,10,06,16.10
2017,05,25,10,07,16.20
2017,05,25,10,08,16.30
2017,05,25,10,09,16.40
2017,05,25,10,10,16.50
2017,05,25,10,11,16.60
2017,05,25,10,12,16.70
2017,05,25,10,13,16.70
2017,05,25,10,14,16.70
2017,05,25,10,15,16.80
2017,05,25,10,16,16.80
2017,05,25,10,17,16.80
2017,05,25,10,18,16.80
2017,05,25,10,19,16.80
2017,05,25,10,20,16.80
2017,05,25,10,21,16.80
2017,05,25,10,22,16.80
2017,05,25,10,23,16.80
2017,05,25,10,24,16.80
2017,05,25,10,25,16.90
2017,05,25,10,26,16.90
2017,05,25,10,27,16.90
2017,05,25,10,28,17.00
2017,05,25,10,29,17.10
2017,05,25,10,30,17.10
2017,05,25,10,31,17.20
2017,05,25,10,32,17.20
2017,05,25,10,33,17.20
2017,05,25,10,34,17.30
2017,05,25,10,35,17.30
2017,05,25,10,36,17.30
2017,05,25,10,37,17.30
2017,05,25,10,38,17.40
2017,05,25,10,39,17.50
2017,05,25,10,40,17.50
2017,05,25,10,41,17.60
2017,05,25,10,42,17.60
2017,05,25,10,43,17.50
2017,05,25,10,44,17.50
2017,05,25,10,45,17.40
2017,05,25,10,46,17.40
2017,05,25,10,47,17.30
2017,05,25,10,48,17.30
2017,05,25,10,49,17.30
2017,05,25,10,50,17.30
2017,05,25,10,51,17.20
2017,05,25,10,52,17.20
2017,05,25,10,53,17.20
2017,05,25,10,54,17.20
2017,05,25,10,55,17.20
2017,05,25,10,56,17.20
2017,05,25,10,57,17.20
2017,05,25,10,58,17.30
2017,05,25,10,59,17.40
2017,05,25,11,00,17.40
2017,05,25,11,01,17.40
2017,05,25,11,02,17.50
2017,05,25,11,03,17.50
2017,05,25,11,04,17.60
2017,05,25,11,05,17.60
2017,05,25,11,06,17.70
2017,05,25,11,07,17.70
2017,05,25,11,08,17.70
2017,05,25,11,09,17.70
2017,05,25,11,10,17.70
2017,05,25,11,11,17.80
2017,05,25,11,12,17.80
2017,05,25,11,13,17.80
2017,05,25,11,14,17.80
2017,05,25,11,15,17.90
2017,05,25,11,16,17.90
2017,05,25,11,17,17.90
2017,05,25,11,18,17.90
2017,05,25,11,19,17.90
2017,05,25,11,20,17.80
2017,05,25,11,21,17.80
2017,05,25,11,22,17.70
2017,05,25,11,23,17.70
2017,05,25,11,24,17.70
2017,05,25,11,25,17.60
2017,05,25,11,26,17.50
2017,05,25,11,27,17.40
2017,05,25,11,28,17.30
2017,05,25,11,29,17.40
2017,05,25,11,30,17.50
2017,05,25,11,31,17.60
2017,05,25,11,32,17.70
2017,05,25,11,33,17.80
2017,05,25,11,34,17.90
2017,05,25,11,35,18.00
2017,05,25,11,36,18.00
2017,05,25,11,37,18.10
2017,05,25,11,38,18.10
2017,05,25,11,39,18.10
2017,05,25,11,40,18.10
2017,05,25,11,41,18.00
2017,05,25,11,42,17.90
2017,05,25,11,43,17.80
2017,05,25,11,44,17.80
2017,05,25,11,45,17.90
2017,05,25,11,46,17.90
2017,05,25,11,47,17.90
2017,05,25,11,48,18.00
2017,05,25,11,49,18.00
2017,05,25,11,50,18.00
2017,05,25,11,51,18.00
2017,05,25,11,52,18.10
2017,05,25,11,53,18.00
2017,05,25,11,54,17.90
2017,05,25,11,55,17.90
2017,05,25,11,56,17.90
2017,05,25,11,57,17.90
2017,05,25,11,58,17.90
2017,05,25,11,59,17.80
2017,05,25,12,00,17.80
2017,05,25,12,01,17.80
2017,05,25,12,02,17.90
2017,05,25,12,03,17.90
2017,05,25,12,04,17.90
2017,05,25,12,05,18.00
2017,05,25,12,06,18.00
2017,05,25,12,07,18.10
2017,05,25,12,08,18.10
2017,05,25,12,09,18.10
2017,05,25,12,10,18.10
2017,05,25,12,11,18.20
2017,05,25,12,12,18.30
2017,05,25,12,13,18.30
2017,05,25,12,14,18.40
2017,05,25,12,15,18.40
2017,05,25,12,16,18.50
2017,05,25,12,17,18.60
2017,05,25,12,18,18.60
2017,05,25,12,19,18.70
2017,05,25,12,20,18.70
2017,05,25,12,21,18.80
2017,05,25,12,22,18.80
2017,05,25,12,23,18.90
2017,05,25,12,24,18.90
2017,05,25,12,25,19.00
2017,05,25,12,26,19.10
2017,05,25,12,27,19.20
2017,05,25,12,28,19.20
2017,05,25,12,29,19.20
2017,05,25,12,30,19.20
2017,05,25,12,31,19.20
2017,05,25,12,32,19.10
2017,05,25,12,33,19.10
2017,05,25,12,34,19.10
2017,05,25,12,35,19.00
2017,05,25,12,36,18.90
2017,05,25,12,37,18.90
2017,05,25,12,38,18.90
2017,05,25,12,39,18.90
2017,05,25,12,40,18.90
2017,05,25,12,41,18.90
2017,05,25,12,42,18.90
2017,05,25,12,43,19.00
2017,05,25,12,44,19.00
2017,05,25,12,45,19.10
2017,05,25,12,46,19.20
2017,05,25,12,47,19.30
2017,05,25,12,48,19.40
2017,05,25,12,49,19.50
2017,05,25,12,50,19.60
2017,05,25,12,51,19.60
2017,05,25,12,52,19.50
2017,05,25,12,53,19.40
2017,05,25,12,54,19.30
2017,05,25,12,55,19.30
2017,05,25,12,56,19.30
2017,05,25,12,57,19.30
2017,05,25,12,58,19.30
2017,05,25,12,59,19.40
2017,05,25,13,00,19.40
2017,05,25,13,01,19.50
2017,05,25,13,02,19.50
2017,05,25,13,03,19.60
2017,05,25,13,04,19.60
2017,05,25,13,05,19.60
2017,05,25,13,06,19.70
2017,05,25,13,07,19.80
2017,05,25,13,08,19.70
2017,05,25,13,09,19.70
2017,05,25,13,10,19.50
2017,05,25,13,11,19.50
2017,05,25,13,12,19.40
2017,05,25,13,13,19.30
2017,05,25,13,14,19.30
2017,05,25,13,15,19.40
2017,05,25,13,16,19.40
2017,05,25,13,17,19.50
2017,05,25,13,18,19.50
2017,05,25,13,19,19.50
2017,05,25,13,20,19.40
2017,05,25,13,21,19.40
2017,05,25,13,22,19.30
2017,05,25,13,23,19.40
2017,05,25,13,24,19.40
2017,05,25,13,25,19.50
2017,05,25,13,26,19.50
2017,05,25,13,27,19.40
2017,05,25,13,28,19.30
2017,05,25,13,29,19.20
2017,05,25,13,30,19.20
2017,05,25,13,31,19.20
2017,05,25,13,32,19.20
2017,05,25,13,33,19.20
2017,05,25,13,34,19.20
2017,05,25,13,35,19.10
2017,05,25,13,36,19.10
2017,05,25,13,37,19.10
2017,05,25,13,38,19.00
2017,05,25,13,39,18.90
2017,05,25,13,40,18.80
2017,05,25,13,41,18.80
2017,05,25,13,42,18.80
2017,05,25,13,43,18.80
2017,05,25,13,44,18.90
2017,05,25,13,45,19.00
2017,05,25,13,46,19.00
2017,05,25,13,47,19.10
2017,05,25,13,48,19.10
2017,05,25,13,49,19.10
2017,05,25,13,50,19.00
2017,05,25,13,51,19.00
2017,05,25,13,52,19.00
2017,05,25,13,53,19.00
2017,05,25,13,54,18.90
2017,05,25,13,55,19.00
2017,05,25,13,56,19.00
2017,05,25,13,57,18.90
2017,05,25,13,58,18.80
2017,05,25,13,59,18.60
2017,05,25,14,00,18.40
2017,05,25,14,01,18.30
2017,05,25,14,02,18.30
2017,05,25,14,03,18.30
2017,05,25,14,04,18.30
2017,05,25,14,05,18.30
2017,05,25,14,06,18.30
2017,05,25,14,07,18.30
2017,05,25,14,08,18.30
2017,05,25,14,09,18.30
2017,05,25,14,10,18.30
2017,05,25,14,11,18.40
2017,05,25,14,12,18.60
2017,05,25,14,13,18.70
2017,05,25,14,14,18.90
2017,05,25,14,15,19.00
2017,05,25,14,16,19.10
2017,05,25,14,17,19.20
2017,05,25,14,18,19.20
2017,05,25,14,19,19.30
2017,05,25,14,20,19.30
2017,05,25,14,21,19.40
2017,05,25,14,22,19.40
2017,05,25,14,23,19.40
2017,05,25,14,24,19.40
2017,05,25,14,25,19.40
2017,05,25,14,26,19.40
2017,05,25,14,27,19.30
2017,05,25,14,28,19.30
2017,05,25,14,29,19.20
2017,05,25,14,30,19.10
2017,05,25,14,31,19.10
2017,05,25,14,32,19.10
2017,05,25,14,33,19.10
2017,05,25,14,34,19.10
2017,05,25,14,35,19.10
2017,05,25,14,36,19.10
2017,05,25,14,37,19.10
2017,05,25,14,38,19.20
2017,05,25,14,39,19.20
2017,05,25,14,40,19.20
2017,05,25,14,41,19.30
2017,05,25,14,42,19.40
2017,05,25,14,43,19.60
2017,05,25,14,44,19.70
2017,05,25,14,45,19.80
2017,05,25,14,46,19.90
2017,05,25,14,47,19.90
2017,05,25,14,48,19.90
2017,05,25,14,49,19.90
2017,05,25,14,50,19.90
2017,05,25,14,51,19.90
2017,05,25,14,52,19.90
2017,05,25,14,53,19.90
2017,05,25,14,54,19.90
2017,05,25,14,55,20.00
2017,05,25,14,56,20.10
2017,05,25,14,57,20.10
2017,05,25,14,58,20.10
2017,05,25,14,59,20.10
2017,05,25,15,00,20.10
2017,05,25,15,01,20.10
2017,05,25,15,02,20.20
2017,05,25,15,03,20.30
2017,05,25,15,04,20.30
2017,05,25,15,05,20.40
2017,05,25,15,06,20.40
2017,05,25,15,07,20.50
2017,05,25,15,08,20.60
2017,05,25,15,09,20.80
2017,05,25,15,10,20.90
2017,05,25,15,11,21.10
2017,05,25,15,12,21.20
2017,05,25,15,13,21.30
2017,05,25,15,14,21.40
2017,05,25,15,15,21.40
2017,05,25,15,16,21.50
2017,05,25,15,17,21.60
2017,05,25,15,18,21.60
2017,05,25,15,19,21.60
2017,05,25,15,20,21.60
2017,05,25,15,21,21.50
2017,05,25,15,22,21.30
2017,05,25,15,23,21.20
2017,05,25,15,24,21.20
2017,05,25,15,25,21.10
2017,05,25,15,26,21.00
2017,05,25,15,27,21.00
2017,05,25,15,28,20.90
2017,05,25,15,29,20.90
2017,05,25,15,30,20.80
2017,05,25,15,31,20.80
2017,05,25,15,32,20.80
2017,05,25,15,33,20.80
2017,05,25,15,34,20.80
2017,05,25,15,35,20.80
2017,05,25,15,36,20.80
2017,05,25,15,37,20.80
2017,05,25,15,38,20.90
2017,05,25,15,39,20.90
2017,05,25,15,40,20.90
2017,05,25,15,41,20.90
2017,05,25,15,42,20.80
2017,05,25,15,43,20.80
2017,05,25,15,44,20.70
2017,05,25,15,45,20.70
2017,05,25,15,46,20.80
2017,05,25,15,47,20.90
2017,05,25,15,48,21.00
2017,05,25,15,49,21.00
2017,05,25,15,50,21.10
2017,05,25,15,51,21.20
2017,05,25,15,52,21.20
2017,05,25,15,53,21.20
2017,05,25,15,54,21.10
2017,05,25,15,55,21.00
2017,05,25,15,56,20.80
2017,05,25,15,57,20.70
2017,05,25,15,58,20.70
2017,05,25,15,59,20.60
2017,05,25,16,00,20.50
2017,05,25,16,01,20.30
2017,05,25,16,02,20.20
2017,05,25,16,03,20.10
2017,05,25,16,04,20.00
2017,05,25,16,05,19.90
2017,05,25,16,06,19.90
2017,05,25,16,07,19.90
2017,05,25,16,08,19.90
2017,05,25,16,09,19.90
2017,05,25,16,10,20.00
2017,05,25,16,11,20.00
2017,05,25,16,12,19.90
2017,05,25,16,13,19.90
2017,05,25,16,14,19.90
2017,05,25,16,15,20.00
2017,05,25,16,16,20.10
2017,05,25,16,17,20.00
2017,05,25,16,18,20.00
2017,05,25,16,19,20.10
2017,05,25,16,20,20.10
2017,05,25,16,21,20.20
2017,05,25,16,22,20.30
2017,05,25,16,23,20.40
2017,05,25,16,24,20.40
2017,05,25,16,25,20.30
2017,05,25,16,26,20.20
2017,05,25,16,27,20.10
2017,05,25,16,28,20.10
2017,05,25,16,29,20.10
2017,05,25,16,30,20.10
2017,05,25,16,31,20.10
2017,05,25,16,32,20.10
2017,05,25,16,33,20.10
2017,05,25,16,34,20.10
2017,05,25,16,35,20.00
2017,05,25,16,36,19.90
2017,05,25,16,37,19.80
2017,05,25,16,38,19.70
2017,05,25,16,39,19.70
2017,05,25,16,40,19.70
2017,05,25,16,41,19.80
2017,05,25,16,42,19.80
2017,05,25,16,43,19.80
2017,05,25,16,44,19.70
2017,05,25,16,45,19.70
2017,05,25,16,46,19.70
2017,05,25,16,47,19.70
2017,05,25,16,48,19.70
2017,05,25,16,49,19.70
2017,05,25,16,50,19.70
2017,05,25,16,51,19.70
2017,05,25,16,52,19.70
2017,05,25,16,53,19.60
2017,05,25,16,54,19.70
2017,05,25,16,55,19.70
2017,05,25,16,56,19.70
2017,05,25,16,57,19.80
2017,05,25,16,58,19.80
2017,05,25,16,59,19.80
2017,05,25,17,00,19.80
2017,05,25,17,01,19.80
2017,05,25,17,02,19.80
2017,05,25,17,03,19.80
2017,05,25,17,04,19.80
2017,05,25,17,05,19.80
2017,05,25,17,06,19.80
2017,05,25,17,07,19.80
2017,05,25,17,08,19.80
2017,05,25,17,09,19.80
2017,05,25,17,10,19.90
2017,05,25,17,11,19.90
2017,05,25,17,12,19.90
2017,05,25,17,13,20.00
2017,05,25,17,14,20.10
2017,05,25,17,15,20.10
2017,05,25,17,16,20.10
2017,05,25,17,17,20.00
2017,05,25,17,18,20.00
2017,05,25,17,19,19.90
2017,05,25,17,20,19.80
2017,05,25,17,21,19.70
2017,05,25,17,22,19.50
2017,05,25,17,23,19.50
2017,05,25,17,24,19.50
2017,05,25,17,25,19.40
2017,05,25,17,26,19.40
2017,05,25,17,27,19.30
2017,05,25,17,28,19.30
2017,05,25,17,29,19.20
2017,05,25,17,30,19.00
2017,05,25,17,31,19.00
2017,05,25,17,32,18.90
2017,05,25,17,33,18.80
2017,05,25,17,34,18.80
2017,05,25,17,35,18.80
2017,05,25,17,36,18.80
2017,05,25,17,37,18.90
2017,05,25,17,38,19.00
2017,05,25,17,39,19.00